Starlink 3761

operational
NORAD ID: 52262 Int'l Des: 2022-041 Owner: SPXS Country: US Constellation: starlink
LEOCIRCULAR

关于 Starlink 3761

正在加载描述...

实时位置

正在加载3D地球...

即将过境

高度历史

Altitude vs Time

uPlot chart will show altitude changes over time

两行轨道根数

1 52262U 22041B 25343.49294568 .00000461 00000-0 47030-4 0 9999
2 52262 53.2177 153.9796 0001537 91.4933 268.6235 15.08842659200742
Epoch: Dec 9, 2025 • Age: 10 hours

当前状态

高度 540.3 km
速度 7.59 km/s
星下点 2.31°N, 80.83°W
发射日期 Apr 21, 2022
运行时间 3.6 years
类型 internet

技术详情

分类 Payload
质量 297.00 kg
干质量 275.00 kg
总质量 297.00 kg
长度 0.20 m
直径 2.80 m
跨度 9.00 m
形状 Box + pan
制造商 SPXS
平台类型 Starlink
阶段状态 In Orbit
所有者/国家 SPXS/US

大型星座

Loading constellations...